FW1921 Weather Reports


time (UTC)temp
F
wind
direction
speed
knots
gust
knots
rain 1hr
in
rain 24hr
in
rain mn
in
humidity
%
barometer
mb
20260508034038 51 314 4.3 7.8 0.00 0.05 0.03 58 1015.4
20260508033536 51 323 3.5 7.8 0.00 0.05 0.03 58 1015.4
20260508033039 51 333 3.5 8.7 0.00 0.05 0.03 58 1015.5
20260508032541 51 304 3.5 9.6 0.00 0.05 0.03 58 1015.5
20260508032037 51 319 4.3 9.6 0.00 0.05 0.03 58 1015.4
20260508031546 51 337 3.5 7.0 0.00 0.05 0.03 58 1015.3
20260508031034 51 335 2.6 7.0 0.00 0.05 0.03 59 1015.3
20260508030534 51 333 2.6 5.2 0.00 0.05 0.03 58 1015.3
20260508030040 51 316 2.6 5.2 0.00 0.05 0.03 59 1015.2
20260508025531 51 280 2.6 6.1 0.00 0.10 0.03 58 1015.1
20260508025031 51 319 2.6 6.1 0.00 0.10 0.03 58 1015.0
20260508024531 51 335 2.6 6.1 0.00 0.10 0.03 58 1015.0
20260508024030 52 323 1.7 5.2 0.00 0.10 0.03 59 1015.0
20260508023528 52 335 2.6 6.1 0.00 0.10 0.03 58 1014.9
20260508023038 52 340 3.5 7.8 0.00 0.10 0.03 58 1014.7
20260508022527 52 315 3.5 7.8 0.00 0.10 0.03 57 1014.7
20260508022027 52 309 3.5 7.0 0.00 0.10 0.03 57 1014.5
20260508021532 52 315 3.5 7.8 0.00 0.10 0.03 57 1014.5
20260508021025 52 316 4.3 8.7 0.00 0.10 0.03 57 1014.5
20260508020525 53 298 4.3 8.7 0.00 0.10 0.03 57 1014.4
20260508020024 53 316 4.3 8.7 0.00 0.10 0.03 57 1014.3
20260508015523 53 304 4.3 8.7 0.00 0.10 0.03 57 1014.2
20260508015023 53 319 3.5 7.8 0.00 0.10 0.03 58 1014.1
20260508014525 53 283 4.3 8.7 0.00 0.10 0.03 57 1014.1
20260508014022 53 293 4.3 9.6 0.00 0.10 0.03 58 1014.0
20260508013524 53 288 5.2 10.4 0.00 0.10 0.03 58 1013.9
20260508013023 53 313 4.3 10.4 0.00 0.10 0.03 59 1013.8
20260508012520 53 300 3.5 10.4 0.00 0.10 0.03 59 1013.7
20260508012022 54 345 4.3 10.4 0.00 0.10 0.03 59 1013.6
20260508011521 54 288 5.2 10.4 0.00 0.10 0.03 57 1013.5
20260508011020 54 335 3.5 8.7 0.00 0.10 0.03 58 1013.4
20260508010520 54 321 4.3 9.6 0.00 0.10 0.03 58 1013.3
20260508010035 54 335 4.3 10.4 0.00 0.10 0.03 58 1013.3
20260508005520 54 331 5.2 10.4 0.00 0.10 0.03 58 1013.2
20260508005019 54 286 4.3 7.8 0.00 0.10 0.03 60 1012.9
20260508004523 55 311 3.5 7.8 0.00 0.10 0.03 60 1012.9
20260508004019 55 289 4.3 7.8 0.00 0.10 0.03 60 1012.8
20260508003521 55 324 4.3 7.8 0.00 0.10 0.03 59 1012.9
20260508003021 55 311 3.5 10.4 0.00 0.10 0.03 60 1012.9
20260508002518 55 300 5.2 10.4 0.00 0.10 0.03 59 1012.8
20260508002018 55 266 5.2 11.3 0.00 0.10 0.03 59 1012.8
20260508001526 55 291 4.3 10.4 0.00 0.10 0.03 61 1012.7
20260508001018 55 270 5.2 10.4 0.00 0.10 0.03 61 1012.7
20260508000516 55 316 3.5 8.7 0.00 0.10 0.03 65 1012.4
20260508000020 56 305 4.3 7.8 0.00 0.10 0.03 65 1012.3
20260507235516 56 290 3.5 8.7 0.00 0.10 0.03 70 1012.0
20260507235014 56 333 2.6 8.7 0.00 0.10 0.03 74 1011.9
20260507234512 56 287 2.6 6.1 0.00 0.10 0.03 80 1011.9
20260507234012 57 269 0.9 3.5 0.00 0.10 0.03 83 1011.8
20260507233512 58 337 0.9 2.6 0.00 0.10 0.03 83 1011.8
20260507233012 58 326 0.9 2.6 0.00 0.10 0.03 84 1011.7
20260507232513 58 337 0.9 4.3 0.00 0.10 0.03 83 1011.7
20260507232017 58 321 1.7 4.3 0.00 0.10 0.03 83 1011.6
20260507231512 58 243 0.9 5.2 0.00 0.10 0.03 83 1011.4
20260507231012 58 300 1.7 6.1 0.00 0.10 0.03 83 1011.3
20260507230512 58 206 0.9 6.1 0.00 0.10 0.03 82 1011.3
20260507230012 58 269 1.7 6.1 0.00 0.10 0.03 82 1011.2
20260507225511 59 108 2.6 6.1 0.00 0.10 0.03 81 1011.1
20260507225011 59 219 1.7 7.8 0.00 0.10 0.03 82 1011.2
20260507224512 59 220 0.9 7.8 0.00 0.10 0.03 82 1011.1
20260507224010 59 286 1.7 5.2 0.00 0.10 0.03 82 1011.1
20260507223510 59 231 1.7 6.1 0.00 0.10 0.03 81 1011.1
20260507223011 59 314 1.7 6.1 0.00 0.10 0.03 82 1011.0
20260507222510 59 141 1.7 7.0 0.00 0.10 0.03 81 1010.9
20260507222009 59 202 2.6 7.0 0.00 0.10 0.03 81 1011.0
20260507221515 59 140 1.7 6.1 0.00 0.10 0.03 82 1010.8
20260507221010 59 229 1.7 6.1 0.00 0.10 0.03 82 1010.8
20260507220514 59 131 1.7 6.1 0.00 0.10 0.03 82 1010.6
20260507220010 58 86 1.7 5.2 0.00 0.10 0.03 83 1010.7
20260507215510 58 304 0.9 4.3 0.00 0.10 0.03 83 1010.6
20260507215009 58 260 0.9 7.0 0.00 0.10 0.03 82 1010.6
20260507214508 59 113 2.6 7.0 0.00 0.10 0.03 81 1010.5
20260507214008 59 93 1.7 7.0 0.00 0.10 0.03 82 1010.5
20260507213509 59 140 1.7 7.0 0.00 0.10 0.03 82 1010.4
20260507213018 58 206 2.6 7.0 0.00 0.10 0.03 83 1010.5
20260507212507 58 147 1.7 6.1 0.00 0.10 0.03 83 1010.5
20260507212107 58 215 0.9 6.1 0.00 0.10 0.03 83 1010.5
20260507211508 58 250 0.9 5.2 0.00 0.10 0.03 83 1010.5
20260507211008 58 275 1.7 4.3 0.00 0.10 0.03 82 1010.6
20260507210512 58 250 0.9 3.5 0.00 0.10 0.03 83 1010.4
20260507210022 58 159 0.9 3.5 0.00 0.10 0.03 83 1010.5
20260507205507 58 215 0.9 5.2 0.00 0.10 0.03 83 1010.6
20260507205007 59 159 0.9 4.3 0.00 0.10 0.03 83 1010.4
20260507204506 59 238 0.9 7.0 0.00 0.10 0.03 81 1010.5
20260507204008 59 95 0.9 7.8 0.00 0.10 0.03 83 1010.4
20260507203506 59 304 2.6 7.8 0.00 0.10 0.03 80 1010.6
20260507203013 59 229 2.6 7.8 0.00 0.10 0.03 80 1010.5
20260507202505 59 215 1.7 5.2 0.00 0.10 0.03 83 1010.5
20260507202004 59 30 0.9 5.2 0.00 0.10 0.03 84 1010.4
20260507201513 58 44 0.9 5.2 0.00 0.10 0.03 84 1010.6
20260507201007 58 86 0.9 6.1 0.00 0.10 0.03 84 1010.7
20260507200503 58 199 1.7 6.1 0.00 0.10 0.03 83 1010.8
20260507200015 57 133 1.7 7.0 0.00 0.10 0.03 84 1010.9
20260507195504 57 147 1.7 5.2 0.00 0.10 0.03 83 1010.9
20260507195007 58 233 0.9 6.1 0.00 0.10 0.03 83 1010.8
20260507194503 58 142 2.6 6.1 0.00 0.10 0.03 82 1011.0
20260507194001 58 229 1.7 6.1 0.00 0.10 0.03 83 1011.2
20260507193503 58 244 1.7 5.2 0.00 0.10 0.03 84 1011.2
20260507193004 58 145 1.7 4.3 0.00 0.10 0.03 86 1011.4
20260507192559 57 191 0.9 4.3 0.00 0.10 0.03 86 1011.5
20260507192104 56 143 0.9 5.2 0.00 0.10 0.03 86 1011.5
20260507191608 56 245 1.7 5.2 0.00 0.10 0.03 84 1011.6
20260507191100 56 172 0.9 6.1 0.00 0.10 0.03 84 1011.5
20260507190557 56 39 1.7 6.1 0.00 0.10 0.03 86 1011.7
20260507190057 56 70 0.9 3.5 0.00 0.10 0.03 87 1011.4
20260507185556 55 101 0.9 3.5 0.00 0.10 0.03 87 1011.5
20260507185054 55 1 0.9 3.5 0.00 0.10 0.03 87 1011.8
20260507184555 55 162 0.9 3.5 0.00 0.10 0.03 89 1011.9
20260507184057 54 152 0.9 4.3 0.00 0.10 0.03 90 1011.7
20260507183552 54 131 0.9 4.3 0.00 0.10 0.03 90 1011.8
20260507183100 53 1 0.0 1.7 0.00 0.10 0.03 89 1011.8
20260507182552 53 1 0.0 2.6 0.00 0.10 0.03 90 1011.7
20260507182051 53 70 0.9 2.6 0.00 0.10 0.03 90 1011.8
20260507181552 52 311 0.0 1.7 0.00 0.10 0.03 90 1011.9
20260507181050 52 1 0.0 1.7 0.00 0.10 0.03 89 1011.9
20260507180551 52 147 0.0 1.7 0.00 0.10 0.03 89 1011.8
20260507180050 52 131 0.0 1.7 0.00 0.10 0.03 90 1011.9
20260507175555 52 155 0.0 1.7 0.00 0.10 0.03 90 1012.0
20260507175052 51 159 0.0 2.6 0.00 0.10 0.03 89 1012.0
20260507174549 51 101 0.0 2.6 0.00 0.10 0.03 89 1012.0
20260507174048 51 105 0.9 2.6 0.00 0.10 0.03 89 1012.1
20260507173550 51 124 0.9 3.5 0.00 0.10 0.03 89 1012.2
20260507173118 51 79 0.9 3.5 0.00 0.10 0.03 90 1012.5
20260507172548 51 44 0.0 4.3 0.00 0.10 0.03 90 1012.4
20260507172047 51 147 1.7 4.3 0.00 0.10 0.03 90 1012.4
20260507171549 50 123 0.9 4.3 0.00 0.10 0.03 90 1012.5
20260507171048 50 86 1.7 5.2 0.00 0.10 0.03 90 1012.5
20260507170551 50 216 0.9 6.1 0.00 0.10 0.03 90 1012.6
20260507170049 50 54 4.3 6.1 0.00 0.10 0.03 90 1012.5
20260507165546 50 109 0.9 4.3 0.00 0.10 0.03 90 1012.7
20260507165045 50 86 1.7 4.3 0.00 0.10 0.03 90 1012.6
20260507164553 50 109 0.9 5.2 0.00 0.10 0.03 90 1013.1
20260507164046 50 122 1.7 5.2 0.00 0.10 0.03 90 1013.1
20260507163546 49 100 2.6 5.2 0.00 0.10 0.03 90 1012.8
20260507163045 49 81 1.7 5.2 0.00 0.10 0.03 90 1013.1
20260507162545 49 111 2.6 5.2 0.00 0.10 0.03 90 1013.0
20260507162045 49 56 3.5 5.2 0.00 0.10 0.03 90 1013.1
20260507161553 49 95 2.6 6.1 0.00 0.10 0.03 90 1013.0
20260507161045 49 79 3.5 6.1 0.00 0.10 0.03 90 1013.2
20260507160544 49 59 3.5 6.1 0.00 0.10 0.03 90 1013.2
20260507160100 49 77 2.6 10.4 0.01 0.10 0.03 90 1013.5
20260507155543 49 70 3.5 10.4 0.01 0.10 0.03 90 1013.2
20260507155045 49 64 5.2 8.7 0.01 0.10 0.03 90 1013.1
20260507154545 49 68 4.3 9.6 0.01 0.10 0.03 90 1013.3
20260507154043 48 72 5.2 9.6 0.01 0.10 0.03 90 1013.4
20260507153542 48 61 3.5 7.0 0.02 0.10 0.03 90 1013.4
20260507153043 48 86 3.5 7.8 0.02 0.10 0.03 90 1013.4
20260507152541 48 77 5.2 8.7 0.02 0.10 0.03 90 1013.4
20260507152041 48 46 3.5 9.6 0.03 0.10 0.03 90 1013.5
20260507151543 48 65 4.3 9.6 0.03 0.10 0.03 90 1013.5
20260507151039 48 58 6.1 8.7 0.03 0.10 0.03 89 1013.4
20260507150545 48 99 5.2 7.8 0.03 0.10 0.03 90 1013.6
20260507150039 49 82 2.6 8.7 0.02 0.09 0.02 90 1013.7
20260507145539 48 103 4.3 9.6 0.02 0.09 0.02 90 1013.3
20260507145039 48 59 4.3 9.6 0.02 0.09 0.02 89 1013.2
20260507144547 48 65 5.2 8.7 0.02 0.09 0.02 88 1013.4
20260507144036 49 102 3.5 7.0 0.02 0.09 0.02 89 1013.8
20260507143535 49 113 2.6 7.8 0.01 0.08 0.01 88 1013.5
20260507143035 49 60 3.5 7.8 0.01 0.08 0.01 88 1013.1
20260507142535 49 65 4.3 7.8 0.01 0.08 0.01 88 1013.2
20260507142036 49 64 3.5 7.8 0.00 0.07 0.00 88 1013.4
20260507141534 49 86 4.3 7.8 0.00 0.07 0.00 87 1013.5
20260507141034 49 60 5.2 7.8 0.00 0.07 0.00 87 1013.5
20260507140535 49 90 4.3 7.8 0.00 0.07 0.00 87 1013.5
20260507140035 49 70 3.5 8.7 0.00 0.07 0.00 87 1013.6
20260507135532 49 70 5.2 8.7 0.00 0.10 0.00 87 1013.7
20260507135031 49 81 5.2 8.7 0.00 0.10 0.00 87 1013.7
20260507134531 49 57 4.3 8.7 0.00 0.10 0.00 87 1013.7
20260507134034 49 49 4.3 7.8 0.00 0.10 0.00 87 1013.9
20260507133530 50 64 5.2 7.8 0.00 0.10 0.00 88 1013.7
20260507133030 50 81 4.3 7.8 0.00 0.10 0.00 88 1013.7
20260507132528 50 102 4.3 7.8 0.00 0.10 0.00 88 1013.6
20260507132028 50 77 4.3 7.8 0.00 0.10 0.00 88 1013.6
20260507131530 50 57 4.3 7.8 0.00 0.10 0.00 88 1013.7
20260507131028 50 52 4.3 7.0 0.00 0.10 0.00 88 1013.6
20260507130528 50 47 4.3 8.7 0.00 0.10 0.00 88 1013.7
20260507130032 50 33 5.2 8.7 0.00 0.10 0.00 88 1013.6
20260507125526 50 49 3.5 7.0 0.00 0.12 0.00 89 1013.6
20260507125028 50 77 4.3 7.0 0.00 0.12 0.00 89 1013.6
20260507124525 50 65 3.5 7.0 0.00 0.12 0.00 89 1013.5
20260507124024 50 49 4.3 7.0 0.00 0.12 0.00 89 1013.4
20260507123523 50 74 4.3 7.8 0.00 0.12 0.00 89 1013.5
20260507123032 50 63 4.3 7.8 0.00 0.12 0.00 89 1013.4
20260507122522 50 70 4.3 8.7 0.00 0.12 0.00 89 1013.4
20260507122024 50 53 5.2 8.7 0.00 0.12 0.00 89 1013.4
20260507121522 50 32 3.5 7.0 0.00 0.12 0.00 89 1013.4
20260507121021 50 68 4.3 7.8 0.00 0.12 0.00 88 1013.2
20260507120521 50 52 4.3 7.8 0.00 0.12 0.00 89 1013.5
20260507120020 50 42 4.3 7.0 0.00 0.12 0.00 89 1013.4
20260507115520 50 50 3.5 7.0 0.00 0.13 0.00 89 1013.3
20260507115019 50 75 4.3 7.8 0.00 0.13 0.00 89 1013.3
20260507114519 50 58 4.3 7.8 0.00 0.13 0.00 89 1013.0
20260507114018 50 65 4.3 7.8 0.00 0.13 0.00 89 1013.1
20260507113519 50 26 5.2 8.7 0.00 0.13 0.00 89 1013.2
20260507113025 50 60 5.2 9.6 0.00 0.13 0.00 89 1013.3
20260507112517 50 20 4.3 9.6 0.00 0.13 0.00 89 1013.2
20260507112017 50 27 6.1 9.6 0.00 0.13 0.00 90 1013.1
20260507111514 50 56 6.1 9.6 0.00 0.13 0.00 90 1013.0
20260507111013 51 32 5.2 7.8 0.00 0.13 0.00 91 1012.9
20260507110512 51 54 3.5 7.0 0.00 0.13 0.00 91 1013.0
20260507110013 51 58 4.3 7.0 0.00 0.13 0.00 91 1012.9
20260507105511 51 49 3.5 8.7 0.00 0.13 0.00 91 1012.8
20260507105010 51 44 3.5 8.7 0.00 0.13 0.00 91 1012.7
20260507104511 51 58 4.3 7.8 0.00 0.13 0.00 91 1012.4
20260507104008 51 33 3.5 9.6 0.00 0.13 0.00 91 1012.4
20260507103507 51 53 4.3 9.6 0.00 0.13 0.00 91 1012.3
20260507103006 51 70 4.3 9.6 0.00 0.13 0.00 90 1012.4
20260507102504 51 70 5.2 9.6 0.00 0.13 0.00 90 1012.3
20260507102006 52 131 2.6 7.0 0.00 0.13 0.00 90 1012.3
20260507101502 53 140 2.6 7.0 0.00 0.13 0.00 91 1012.3
20260507101002 53 72 2.6 5.2 0.00 0.13 0.00 91 1012.2
20260507100600 53 65 2.6 6.1 0.00 0.13 0.00 91 1012.2
20260507100058 53 64 3.5 7.0 0.00 0.13 0.00 90 1012.3
20260507095558 54 80 3.5 7.0 0.00 0.13 0.00 90 1012.1
20260507095056 54 65 2.6 6.1 0.00 0.13 0.00 90 1012.3
20260507094555 54 58 4.3 6.1 0.00 0.13 0.00 89 1012.3
20260507094053 55 60 3.5 6.1 0.00 0.13 0.00 88 1012.3
20260507093553 55 63 0.9 7.0 0.00 0.13 0.00 87 1012.4
20260507093056 55 51 2.6 7.0 0.00 0.13 0.00 87 1012.3
20260507092552 55 32 2.6 5.2 0.00 0.13 0.00 87 1012.2
20260507092049 56 1 2.6 4.3 0.00 0.13 0.00 87 1012.3
20260507091550 56 314 1.7 2.6 0.00 0.13 0.00 86 1011.9
20260507091049 56 1 0.9 2.6 0.00 0.13 0.00 87 1012.0
20260507090549 56 304 0.9 3.5 0.00 0.13 0.00 87 1012.2
20260507090048 56 159 0.0 3.5 0.00 0.13 0.00 87 1012.2
20260507085548 56 19 0.9 2.6 0.00 0.13 0.00 87 1012.4
20260507085048 56 304 0.0 2.6 0.00 0.13 0.00 87 1012.4
20260507084547 56 44 0.9 2.6 0.00 0.13 0.00 87 1012.6
20260507084046 56 242 0.0 1.7 0.00 0.13 0.00 87 1012.6
20260507083545 56 304 0.0 1.7 0.00 0.13 0.00 87 1012.4
20260507083047 56 131 0.0 2.6 0.00 0.13 0.00 86 1012.1
20260507082545 57 172 0.0 2.6 0.00 0.13 0.00 86 1012.0
20260507082045 57 260 0.9 2.6 0.00 0.13 0.00 86 1011.7
20260507081544 57 44 0.0 1.7 0.00 0.13 0.00 86 1011.8
20260507081043 57 172 0.0 2.6 0.00 0.13 0.00 86 1011.9
20260507080545 57 11 0.9 3.5 0.00 0.13 0.00 86 1012.0
20260507080044 57 216 0.9 3.5 0.00 0.13 0.00 86 1012.1
20260507075547 57 283 0.9 3.5 0.00 0.13 0.00 86 1012.1
20260507075043 57 304 1.7 5.2 0.00 0.13 0.00 86 1012.0
20260507074545 57 331 0.9 6.1 0.00 0.13 0.00 86 1012.0
20260507074043 57 282 1.7 6.1 0.00 0.13 0.00 87 1012.1
20260507073541 57 293 2.6 4.3 0.00 0.13 0.00 87 1011.9
20260507073041 57 319 1.7 5.2 0.00 0.13 0.00 87 1011.9
20260507072540 57 312 0.9 7.0 0.00 0.13 0.00 87 1012.1
20260507072040 57 314 0.9 7.0 0.00 0.13 0.00 87 1011.9
20260507071539 57 278 1.7 5.2 0.00 0.13 0.00 88 1012.1
20260507071040 57 321 2.6 7.0 0.00 0.13 0.00 88 1012.1
20260507070538 57 326 3.5 7.0 0.00 0.13 0.00 88 1011.9
20260507070038 57 311 0.9 2.6 0.00 0.13 0.00 89 1011.8
20260507065539 57 138 0.9 3.5 0.00 0.13 0.00 88 1011.5
20260507065035 57 172 0.0 4.3 0.00 0.13 0.00 88 1011.5
20260507064537 57 242 0.9 4.3 0.00 0.13 0.00 88 1011.8
20260507064035 57 233 0.9 4.3 0.00 0.13 0.00 88 1011.7
20260507063534 57 237 0.9 4.3 0.00 0.13 0.00 88 1011.8
20260507063034 57 304 0.0 9.6 0.00 0.13 0.00 88 1011.5
20260507062535 57 202 1.7 9.6 0.00 0.13 0.00 88 1011.6
20260507062033 57 61 1.7 8.7 0.00 0.13 0.00 88 1011.5
20260507061533 57 238 2.6 8.7 0.00 0.13 0.00 88 1011.7
20260507061032 58 20 2.6 7.8 0.00 0.13 0.00 89 1012.0
20260507060532 58 296 2.6 7.8 0.00 0.13 0.00 89 1012.1
20260507060037 58 268 2.6 8.7 0.00 0.13 0.00 89 1011.9
20260507055530 58 270 3.5 11.3 0.00 0.13 0.00 89 1012.2
20260507055028 58 312 2.6 11.3 0.00 0.13 0.00 89 1012.2
20260507054528 58 318 5.2 10.4 0.00 0.13 0.00 90 1012.4
20260507054029 58 288 4.3 10.4 0.00 0.13 0.00 90 1012.3
20260507053529 58 296 3.5 10.4 0.00 0.13 0.00 91 1012.3
20260507053025 59 233 4.3 9.6 0.00 0.13 0.00 91 1012.3
20260507052524 59 266 4.3 13.0 0.00 0.13 0.00 91 1012.2
20260507052023 59 302 5.2 13.0 0.00 0.13 0.00 91 1012.2
20260507051522 60 289 3.5 10.4 0.00 0.13 0.00 92 1012.2
20260507051020 60 318 1.7 4.3 0.00 0.13 0.00 92 1012.3
20260507050520 60 295 1.7 5.2 0.00 0.13 0.00 92 1011.9
20260507050020 60 301 1.7 4.3 0.00 0.13 0.00 92 1011.8
20260507045521 60 291 1.7 4.3 0.00 0.13 0.00 92 1011.7
20260507045018 60 278 1.7 4.3 0.00 0.13 0.00 92 1011.5
20260507044519 60 307 0.9 4.3 0.01 0.13 0.00 92 1011.2
20260507044018 60 304 0.0 2.6 0.01 0.13 0.00 92 1010.7
20260507043519 60 131 0.0 1.7 0.01 0.13 0.00 92 1010.6
20260507043017 61 131 0.0 1.7 0.01 0.13 0.00 92 1010.8
20260507042515 61 86 0.0 1.7 0.01 0.13 0.00 92 1011.1
20260507042014 61 321 0.0 4.3 0.01 0.13 0.00 92 1011.6
20260507041531 61 1 0.9 4.3 0.01 0.13 0.00 91 1011.9
20260507041014 61 216 0.9 3.5 0.02 0.13 0.00 91 1011.8
20260507040512 61 242 0.9 3.5 0.02 0.13 0.00 91 1012.4
20260507040011 61 229 0.9 5.2 0.02 0.13 0.00 91 1011.9
20260507035510 61 212 1.7 5.2 0.03 0.13 0.13 91 1012.0
20260507035012 61 283 1.7 5.2 0.03 0.13 0.13 91 1012.2
20260507034513 61 316 0.9 4.3 0.02 0.12 0.12 91 1012.0